Regional Weather Roundup
Issued by NWS

Home | Current Version | Previous Version | Text Only | Print | Product List | Glossary Off
Versions: 1 2 3 4 5 6 7 8 9 10 11 12 13 14 15 16 17 18 19 20 21 22 23 24 25 26 27 28 29 30 31 32 33 34 35 36 37 38 39 40 41 42 43 44 45 46 47 48 49 50

000
ASUS43 KMPX 291710
RWRMN
WEATHER ROUNDUP FOR MINNESOTA
NATIONAL WEATHER SERVICE TWIN CITIES/CHANHASSEN MN
1200 PM CDT FRI AUG 29 2014


NOTE: "FAIR" INDICATES FEW OR NO CLOUDS BELOW 12,000 FEET WITH NO
SIGNIFICANT WEATHER AND/OR OBSTRUCTIONS TO VISIBILITY. N/A MEANS
CURRENT SKY AND/OR WEATHER CONDITIONS ARE NOT AVAILABLE.

MNZ060>063-068>070-291800-
   Twin Cities Metro

CITY           SKY/WX    TMP DP  RH WIND       PRES   REMARKS
TWIN CITIES    CLOUDY    75  68  78 S7        29.79F
ST PAUL        PTSUNNY   75  69  81 S7        29.79F
CRYSTAL        LGT RAIN  71  68  90 S6        29.79S FOG
BLAINE         RAIN      72  72 100 SW9       29.80R
LAKEVILLE      CLOUDY    73  68  83 SW5       29.80F
EDEN PRAIRIE   CLOUDY    74  69  85 SW8       29.78F
SOUTH ST PAUL  PTSUNNY   77  67  72 S9        29.79F
LAKE ELMO      CLOUDY    77  70  78 SW7       29.81S
$$
MNZ001>005-007-008-013>017-022>024-027-028-291800-
   Northwest Minnesota

CITY           SKY/WX    TMP DP  RH WIND       PRES   REMARKS
BEMIDJI        CLOUDY    66  64  91 CALM      29.78F
HALLOCK        PTSUNNY   68  64  88 S5        29.75F FOG
ROSEAU         MOSUNNY   70  64  83 S7        29.76F
WARROAD        CLOUDY    70  64  83 S6        29.76F
THIEF RVR FALL CLOUDY    70  64  83 S5        29.78S
CROOKSTON      CLOUDY    68  64  88 W5        29.78S
FOSSTON        CLOUDY    70  64  83 CALM      29.78F
DETROIT LAKES  LGT RAIN  68  64  88 CALM      29.79F
MOORHEAD       CLOUDY    70  68  94 SW3       29.78R
PARK RAPIDS    CLOUDY    67  64  90 CALM      29.78F
MAHNOMEN       CLOUDY    67  66  96 CALM      29.77F
$$
MNZ006-009>011-018-025>026-291800-
   North Central Minnesota

CITY           SKY/WX    TMP DP  RH WIND       PRES   REMARKS
BAUDETTE       CLOUDY    65  63  93 SE6       29.78S
FLAG ISLAND    CLOUDY    66  63  88 S5        29.76S
INTL FALLS     CLOUDY    67  61  81 S8        29.80S
WASKISH        LGT RAIN  64  63  94 CALM      29.79F
BIG FORK       CLOUDY    64  61  88 SE3       29.81S
LONGVILLE      DRIZZLE   64  63  94 CALM      29.78F
GRAND RAPIDS   CLOUDY    63  61  94 E5        29.80F
CRANE LAKE     LGT RAIN  61  61 100 CALM      29.83S
ORR            DRIZZLE   63  61  94 SE7       29.79F
COOK           LGT RAIN  63  61  94 CALM      29.81F
WALKER         CLOUDY    65  64  95 CALM      29.78F
$$
MNZ012-019>021-037-291800-
   Northeast Minnesota

CITY           SKY/WX    TMP DP  RH WIND       PRES   REMARKS
DULUTH         LGT RAIN  62  60  93 E3        29.80S
ELY            RAIN      61  57  88 CALM      29.82F
HIBBING        LGT RAIN  63  61  93 SE3       29.81F
EVELETH        DRIZZLE   61  59  94 CALM      29.83S
DULUTH HARBOR  LGT RAIN  63  61  94 NE9       29.79F
TWO HARBORS    LGT RAIN  61  55  82 CALM      29.79F
SILVER BAY     HVY RAIN  57  57 100 CALM      29.80S
GRAND MARAIS     N/A     61  58  90 E10       29.85R
G MARAIS ARPRT DRZL/FOG  55  54  94 CALM      29.87R VSB 1
$$
MNZ029>031-032-039>041-046>048-054>057-064-291800-
   West Central Minnesota

CITY           SKY/WX    TMP DP  RH WIND       PRES   REMARKS
FERGUS FALLS   CLOUDY    66  66 100 CALM      29.77F FOG
WHEATON        CLOUDY    66  64  94 CALM      29.80S
MORRIS         CLOUDY    70  68  94 NW3       29.78F
ALEXANDRIA     CLOUDY    69  65  86 CALM      29.81S
ELBOW LAKE     CLOUDY    68  66  93 SW3       29.79S
WADENA         LGT RAIN  66  64  94 CALM      29.78S
GLENWOOD       CLOUDY    66  66 100 CALM      29.80S
APPLETON       CLOUDY    70  66  88 NW5       29.77F
BENSON         LGT RAIN  68  66  94 NE5       29.77F
ORTONVILLE     CLOUDY    68  64  88 NW6       29.79S
MADISON        CLOUDY    75  70  83 N7        29.78F
WILLMAR        HVY RAIN  70  66  88 N7        29.79F
$$
MNZ033>034-036-042>043-049>051-058-059-291800-
   Central Minnesota

CITY           SKY/WX    TMP DP  RH WIND       PRES   REMARKS
ST CLOUD       CLOUDY    72  68  87 S6        29.78R
SAUK CENTRE    LGT RAIN  67  66  97 W5        29.79S
PAYNESVILLE    CLOUDY    67  67  97 S3        29.79S
AITKIN         MIX PCPN  66  61  82 CALM      29.77F
PINE RIVER     LGT RAIN  66  66 100 CALM      29.82S
BRAINERD       LGT RAIN  65  64  97 NE3       29.78F
STAPLES        CLOUDY    66  64  94 CALM      29.79R
LONG PRAIRIE   RAIN      64  64 100 CALM      29.79F
LITTLE FALLS   LGT RAIN  64  63  94 CALM      29.78S
LITCHFIELD     LGT RAIN  72  72 100 CALM      29.79S
BUFFALO        HVY RAIN  68  65  90 SE5       29.80S
MAPLE LAKE     CLOUDY    69  68  97 CALM      29.80R
$$
MNZ037-044-045-052-053-291800-
   East Central Minnesota

CITY           SKY/WX    TMP DP  RH WIND       PRES   REMARKS
PRINCETON      CLOUDY    72  70  94 S2        29.79R
MORA           RAIN      64  64 100 CALM      29.79R
CAMBRIDGE      CLOUDY    72  63  73 S3        29.77R
RUSH CITY      CLOUDY    69  67  96 S5        29.78R THUNDER
MOOSE LAKE     LGT RAIN  64  63  94 CALM      29.76F
HINCKLEY       LGT RAIN  64  64 100 SE6       29.79S
CLOQUET        RAIN      63  61  94 CALM      29.79F
MCGREGOR       CLOUDY    63  63 100 CALM      29.80S
$$
MNZ071>073-080-081-089-090-097-098-291800-
   Southwest Minnesota

CITY           SKY/WX    TMP DP  RH WIND       PRES   REMARKS
MONTEVIDEO     CLOUDY    72  72 100 NE5       29.79R
GRANITE FALLS  CLOUDY    70  69  95 CALM      29.79F
CANBY          CLOUDY    69  68  98 CALM      29.81R
MARSHALL       PTSUNNY   73  66  78 N9        29.78S
REDWOOD FALLS  PTSUNNY   77  71  82 SW12      29.78R
OLIVIA         CLOUDY    72  68  88 S6        29.78R FOG
PIPESTONE      CLOUDY    72  68  88 SW5       29.81S
WINDOM         CLOUDY    73  68  83 SW13      29.80F
WORTHINGTON    CLOUDY    72  68  88 SW10      29.83S
JACKSON        DRIZZLE   72  66  83 SW8       29.82S
TRACY          PTSUNNY   76  70  80 SW7       29.79S
SLAYTON        CLOUDY    73  68  86 CALM      29.81F
$$
MNZ065>067-074>077-082>085-091>093-291800-
   South Central Minnesota

CITY           SKY/WX    TMP DP  RH WIND       PRES   REMARKS
MANKATO        PTSUNNY   75  66  73 S13       29.79F
NEW ULM        PTSUNNY   75  72  88 SW12      29.78S
ST JAMES       CLOUDY    79  70  73 S9        29.80S
FAIRMONT       CLOUDY    72  64  78 SW9       29.81S
GLENCOE        CLOUDY    73  68  82 S9        29.79R
FARIBAULT      PTSUNNY   81  66  61 S7        29.81S
OWATONNA       PTSUNNY   79  68  69 S7        29.81F
WASECA         PTSUNNY   77  64  65 S9        29.82F
ALBERT LEA     PTSUNNY   81  70  69 S10       29.81F
$$
MNZ078>079-086>088-094>096-291800-
   Southeast Minnesota

CITY           SKY/WX    TMP DP  RH WIND       PRES   REMARKS
ROCHESTER      MOSUNNY   80  70  71 S9G16     29.84F
RED WING       MOSUNNY   79  70  73 SE6       29.79F
STANTON        PTSUNNY   78  68  71 SW8       29.80S
DODGE CENTER   MOSUNNY   81  70  69 S10       29.83F
WINONA         MOSUNNY   79  70  73 S3        29.83F
AUSTIN         MOSUNNY   79  72  78 S13       29.82F
PRESTON        MOSUNNY   77  74  88 S3        29.86S
$$
ABBREVIATIONS USED IN REMARKS
   TC - TEMPERATURES IN CELSIUS
  WCI - WIND CHILL INDEX
   HX - HEAT INDEX
  VSB - VISIBILITY
$$


USA.gov is the U.S. government's official web portal to all federal, state and local government web resources and services.